Torna al catalogo

STARLINK-5386

AttivoComunicazioniVLEO
NORAD 54834·PAYLOAD·🇺🇸 United States

Lanciato Dec 28, 2022 da Cape Canaveral Space Force Station

Loading…

Prossimi Passaggi (prossime 24 ore)

TLE

AggiornatoSource: CelesTrak SupGP

Epoca: Sep 14, 2026, 22:12 UTC

1 54834C 22177Q   26257.92548611 -.00014721  00000+0 -53328-3 0  2578
2 54834  43.0022 147.7592 0001552 265.8250 316.4026 15.27580274    17

Traccia STARLINK-5386 in tempo reale con AllMySat

Download on the App Store